Home   Weather   Paradise   Past weeks

Flag for Canada Past Weather in Paradise, Newfoundland and Labrador, Canada — Yesterday and Last 2 Weeks

50 °F

Passing clouds.

Feels Like: 41 °F
Forecast: 47 / 52 °F
Wind: 37 mph from West

Location: St. John's

Current Time: Oct 24, 2016 at 3:59:24 PM

Latest Report: Oct 24, 2016 at 3:30 PM

Visibility: 15 mi

Pressure: 29.61 "Hg

Humidity: 62%

Dew Point: 37 °F

Location of ParadiseLocation

Past Weather in Paradise — Graph


Paradise Temperature Yesterday

Maximum temperature yesterday: 70 °F (at 3:30 AM)
Minimum temperature yesterday: 57 °F (at 10:30 PM)
Average temperature yesterday: 65 °F

High & Low Weather Summary for the Past Weeks

High70 °F (Oct 23, 3:30 AM)100% (Oct 10, 6:30 AM)30.51 "Hg (Oct 10, 6:30 AM)
Low32 °F (Oct 21, 2:30 AM)33% (Oct 13, 11:30 AM)29.41 "Hg (Oct 11, 3:30 AM)
Average48 °F85%30.00 "Hg
* Reported Oct 9 2:30 PM — Oct 24 2:30 PM, Paradise, Weather by CustomWeather, © 2016

Note: Actual official high and low records may vary slightly from our data, if they occured in-between our weather recording intervals... More about our weather records


Paradise Weather History for the Previous 24 Hours

Scroll right to see more
Time TempWeatherWind HumidityBarometerVisibility
2:30 PM
Mon, Oct 24
50 °FPassing clouds.38 mph62%29.58 "Hg15 mi
1:30 PM48 °FPartly sunny.25 mph76%29.59 "Hg15 mi
12:30 PM50 °FPassing clouds.29 mph71%29.57 "Hg15 mi
11:30 AM50 °FScattered clouds.23 mph76%29.57 "Hg15 mi
10:30 AM52 °FScattered clouds.21 mph82%29.56 "Hg15 mi
9:30 AM52 °FScattered clouds.17 mph88%29.56 "Hg15 mi
8:30 AM50 °FBroken clouds.17 mph94%29.55 "Hg15 mi
7:30 AM50 °FMostly cloudy.15 mph88%29.52 "Hg15 mi
6:30 AM50 °FSprinkles. Overcast.13 mph88%29.51 "Hg12 mi
5:30 AM50 °FOvercast.13 mph88%29.50 "Hg15 mi
4:30 AM50 °FSprinkles. Mostly cloudy.15 mph94%29.50 "Hg12 mi
3:30 AM52 °FLight rain. Mostly cloudy.9 mph88%29.50 "Hg12 mi
2:30 AM52 °FLight rain. Overcast.15 mph94%29.51 "Hg12 mi
1:30 AM54 °FLight rain. Overcast.12 mph88%29.51 "Hg12 mi
12:30 AM54 °FLight rain. Overcast.18 mph94%29.52 "Hg12 mi
11:30 PM
Sun, Oct 23
57 °FLight rain. Overcast.20 mph88%29.54 "Hg12 mi
10:30 PM57 °FMostly cloudy.16 mph100%29.53 "Hg12 mi
9:30 PM61 °FFog.16 mph94%29.52 "Hg1 mi
8:30 PM61 °FFog.16 mph100%29.52 "Hg3 mi
7:30 PM63 °FMostly cloudy.15 mph94%29.52 "Hg15 mi
6:30 PM61 °FMostly cloudy.17 mph100%29.52 "Hg15 mi
5:30 PM61 °FMostly cloudy.12 mph100%29.50 "Hg12 mi
4:30 PM64 °FLow clouds.15 mph94%29.51 "Hg15 mi
4:27 PM64 °FLow clouds.13 mph94%29.51 "Hg15 mi
3:30 PM66 °FRain. Fog.9 mph94%29.52 "Hg4 mi
Weather by CustomWeather, © 2016

See weather overviewHow to use our weather pages